Погода в Притеречном

Россия / Республика Северная Осетия — Алания     43°44′33″N   44°18′14″E
темп.,
°C
ветер,
м/с
пор.,
м/с
влажн.,
%
обл.,
%
осадки,
мм/ч
давл.,
гПа
погр.,
м
9 марта, вт
вт900:00+2юв226757 0.0 101822
03:000юз227370 0.0 101826
06:000ююз236461 0.0 101933
09:00+4ю234731 0.0 1017371
12:00+7вюв12360 0.0 10161245
15:00+9св12310 0.0 10161842
18:00+6юв014028 0.0 101823
21:00+4сз266962 0.0 1021452
10 марта, ср
ср1000:00+3ссз1373100 0.0 1022290
03:00+2с2476100 0.0 1023225
06:00+1ссз3684100 0.5 1024500
09:00+2ссз4660100 0.6 1024848
12:00+5ссз4449100 0.0 10231250
15:00+5с3348100 0.0 10221273
18:00+4св3454100 0.0 1022612
21:00+2св4557100 0.0 1022855
11 марта, чт
чт1100:000всв6972100 0.0 1021683
03:00−2всв5892100 0.6 1020545
06:00−2всв6995100 1.2 1019536
09:00−2всв71093100 2.8 1019718
12:00−2всв81191100 1.3 1018859
15:00−2всв81292100 2.5 1017887
18:00−5всв81292100 0.9 1018804
21:00−5всв61094100 1.9 1019752
12 марта, пт
пт1200:00−6всв6994100 1.4 1019687
03:00−6всв5895100 3.4 1020597
06:00−7всв6995100 1.7 1023615
09:00−7всв61093100 2.8 1024572
12:00−6всв7992100 0.7 1025685
15:00−5всв6994100 1.4 1026686
18:00−6в61094100 0.7 1028547
21:00−8в4995100 0.8 1031414
13 марта, сб
сб1300:00−10в379798 0.0 1031184
03:00−12в339794 0.1 103152
06:00−13в339785 0.0 103249
09:00−9вюв238873 0.0 1032247
12:00−5в468965 0.0 1030600
15:00−4в578882 0.1 1029636
18:00−5в4790100 0.1 1029310
21:00−8в479685 0.1 1029131